Flag for India Weather past 2 weeks in Kolkata, West Bengal, India

Now
97 °F

Scattered clouds.


Feels Like: 118 °F
Forecast: 82 / 101 °F
Wind: 13 mph from South

Location: Calcutta / Dum Dum

Current Time: Apr 21, 2015 at 2:49:52 PM

Latest Report: Apr 21, 2015 at 2:20 PM


Visibility: 3 mi

Pressure: 29.65 "Hg

Humidity: 60%

Dew point: 81 °F

Location of KolkataLocation

Historic Weather in Kolkata — Graph

°F

Kolkata temperature yesterday

Maximum temperature yesterday: 104 °F (at 3:30 PM)
Minimum temperature yesterday: 81 °F (at 4:50 AM)
Average temperature yesterday: 88 °F

Past Weeks' High & Low Weather Summary

 TemperatureHumidityPressure
High104 °F (Apr 20, 3:30 PM)100% (Apr 7, 7:50 PM)29.98 "Hg (Apr 7, 7:50 PM)
Low72 °F (Apr 7, 7:50 PM)26% (Apr 20, 3:30 PM)29.59 "Hg (Apr 18, 3:20 PM)
Average85 °F69%29.79 "Hg
* Reported Apr 6 1:50 PM — Apr 21 1:50 PM, Kolkata, Weather by CustomWeather, © 2015

Note: Actual official high and low records may vary slightly from our data, if they occured in-between our weather recording intervals... More about our weather records

Advertising

Kolkata weather history for previous 24 hours

 ConditionsComfort  
Time TempWeatherWind HumidityBarometerVisibility
1:50 PM
Tue, Apr 21
97 °FScattered clouds.13 mph56%29.65 "Hg2 mi
1:20 PM97 °FScattered clouds.12 mph56%29.65 "Hg2 mi
12:50 PM97 °FScattered clouds.12 mph56%29.68 "Hg2 mi
12:20 PM97 °FScattered clouds.9 mph53%29.68 "Hg3 mi
11:50 AM97 °FScattered clouds.7 mph53%29.71 "Hg4 mi
11:20 AM95 °FPassing clouds.9 mph56%29.71 "Hg4 mi
10:50 AM95 °FHaze.10 mph56%29.71 "Hg4 mi
10:20 AM95 °FHaze.13 mph56%29.74 "Hg3 mi
9:50 AM93 °FScattered clouds.13 mph59%29.74 "Hg3 mi
9:20 AM91 °FScattered clouds.12 mph63%29.74 "Hg2 mi
8:50 AM91 °FScattered clouds.15 mph63%29.74 "Hg2 mi
8:20 AM90 °FScattered clouds.16 mph67%29.74 "Hg2 mi
7:50 AM88 °FHaze.N/A70%29.74 "Hg2 mi
7:20 AM88 °FHaze.13 mph70%29.74 "Hg2 mi
6:50 AM86 °FHaze.14 mph75%29.74 "Hg2 mi
5:20 AM82 °FFog.12 mph84%29.68 "Hg2 mi
4:50 AM82 °FFog.12 mph84%29.68 "Hg2 mi
4:20 AM82 °FFog.9 mph84%29.68 "Hg2 mi
3:50 AM82 °FFog.9 mph84%29.68 "Hg2 mi
3:20 AM82 °FFog.9 mph84%29.68 "Hg2 mi
2:50 AM82 °FFog.9 mph84%29.68 "Hg2 mi
2:20 AM82 °FFog.8 mph84%29.68 "Hg2 mi
1:50 AM82 °FFog.8 mph84%29.71 "Hg2 mi
1:20 AM82 °FFog.6 mph84%29.71 "Hg2 mi
12:50 AM82 °FFog.5 mph84%29.71 "Hg2 mi
12:20 AM82 °FFog.5 mph84%29.74 "Hg2 mi
11:50 PM
Mon, Apr 20
82 °FFog.6 mph84%29.77 "Hg2 mi
11:20 PM82 °FFog.6 mph84%29.77 "Hg2 mi
10:50 PM84 °FFog.8 mph79%29.74 "Hg2 mi
10:20 PM84 °FFog.9 mph79%29.74 "Hg2 mi
9:50 PM84 °FFog.10 mph79%29.74 "Hg2 mi
9:20 PM84 °FHaze.12 mph74%29.74 "Hg2 mi
8:50 PM86 °FHaze.14 mph75%29.74 "Hg2 mi
8:20 PM86 °FHaze.14 mph75%29.74 "Hg2 mi
7:50 PM86 °FHaze.14 mph75%29.71 "Hg2 mi
7:20 PM88 °FHaze.14 mph70%29.71 "Hg2 mi
6:50 PM88 °FHaze.14 mph70%29.68 "Hg2 mi
6:20 PM90 °FHaze.13 mph67%29.68 "Hg3 mi
5:50 PM90 °FHaze.14 mph67%29.68 "Hg3 mi
5:20 PM91 °FHaze.13 mph63%29.68 "Hg3 mi
4:50 PM93 °FPassing clouds.13 mph56%29.68 "Hg4 mi
4:20 PM93 °FPassing clouds.15 mph56%29.71 "Hg4 mi
3:50 PM95 °FPassing clouds.15 mph50%29.71 "Hg4 mi
3:30 PM104 °FScattered clouds.2 mph26%29.65 "Hg3 mi
2:50 PM95 °FPassing clouds.14 mph50%29.71 "Hg4 mi
2:20 PM93 °FPassing clouds.15 mph53%29.71 "Hg4 mi
Weather by CustomWeather, © 2015

See weather overviewHow to use our weather pages